User: anonymous   Login
Location: ActonStarParty
(42.4766°N, 71.4538°W)
Time: 13:53:06
(UTC-05:00)
Language:

Cosmos 1300 - Orbit

View from above orbital plane
View from above orbital plane
View from above satellite
View from above satellite

Ground track
Ground track

The orbit data is extracted from the following two-line orbital elements,

1 12785U 81082A   16038.54499852  .00003603  00000-0  18812-3 0  9991
2 12785  82.5032 202.8960 0002171 126.0646 297.9727 15.15631774876743
Epoch (UTC): 07 February 2016 13:04:47
Eccentricity: 0.0002171
inclination: 82.5032°
perigee height: 517 km
apogee height: 520 km
right ascension of ascending node: 202.8960°
argument of perigee: 126.0646°
revolutions per day: 15.15631774
mean anomaly at epoch: 297.9727°
orbit number at epoch: 87674

The dashed part of the orbit path shows where the satellite is in the earth's shadow,  

DLR